Location: Chippewa Lake
(41.0698°N, 81.9010°W)
Time: 21:57:54
(UTC+00:00)

Cosmos 1709 Rocket - Pass Details

Date: 09 May 2021
Orbit: 948 x 1002 km, 82.9° (Epoch: 16 June)

Event Time Altitude Azimuth Distance (km) Brightness Sun altitude
Rises 02:46:52 0° 349° (N) 3,636 8.0 -21.1°
Reaches altitude 10° 02:49:23 10° 347° (NNW) 2,682 7.2 -21.4°
Maximum altitude 02:55:25 65° 267° (W) 1,037 4.2 -22.1°
Enters shadow 02:58:38 29° 194° (SSW) 1,677 4.9 -22.5°
